Flag for U.S.A. Weather past 2 weeks in Breckenridge, Colorado, U.S.A.

Now
52 °F

Mostly cloudy.


Feels Like: 49 °F
Forecast: 53 / 65 °F
Wind: 9 mph from West

Location: Copper Mountain - Red Cliff Pass

Current Time: Jul 31, 2014 at 12:16:14 PM

Latest Report: Jul 31, 2014 at 11:36 AM


Visibility: 10 mi

Pressure: 30.64 "Hg

Humidity: 77%

Dew point: 45 °F

Location of BreckenridgeLocation

Historic Weather in Breckenridge — Graph

°F

Breckenridge temperature yesterday

Maximum temperature yesterday: 54 °F (at 10:56 AM)
Minimum temperature yesterday: 45 °F (at 12:16 AM)
Average temperature yesterday: 47 °F

Past Weeks' High & Low Weather Summary

 TemperatureHumidityPressure
High72 °F (Jul 25, 3:56 PM)87% (Jul 26, 5:56 PM)30.90 "Hg (Jul 26, 5:56 PM)
Low45 °F (Jul 16, 6:56 PM)12% (Jul 22, 5:56 PM)30.44 "Hg (Jul 16, 5:56 PM)
Average55 °F52%30.68 "Hg
* Reported Jul 16 11:16 AM — Jul 31 11:16 AM, Breckenridge, Weather by CustomWeather, © 2014

Note: Actual official high and low records may vary slightly from our data, if they occured in-between our weather recording intervals... More about our weather records

Advertising

Breckenridge weather history for previous 24 hours

 ConditionsComfort  
Time TempWeatherWind HumidityBarometerVisibility
11:16 AM
Jul 31
54 °FMostly cloudy.6 mph77%30.64 "Hg10 mi
10:56 AM54 °FCloudy.7 mph77%30.64 "Hg10 mi
10:36 AM50 °FMostly cloudy.10 mph82%30.64 "Hg10 mi
9:56 AM48 °FLow clouds.10 mph82%30.64 "Hg0 mi
9:36 AM50 °FLight rain. Low clouds.9 mph82%30.64 "Hg0 mi
9:16 AM50 °FMostly cloudy.7 mph76%30.64 "Hg10 mi
8:56 AM48 °FMore clouds than sun.10 mph82%30.64 "Hg10 mi
8:36 AM46 °FLow clouds.10 mph87%30.64 "Hg7 mi
8:16 AM46 °FMostly cloudy.10 mph87%30.64 "Hg10 mi
7:56 AM46 °FLow clouds.9 mph82%30.63 "Hg10 mi
7:36 AM46 °FLow clouds.3 mph82%30.63 "Hg10 mi
7:16 AM46 °FLow clouds.6 mph82%30.62 "Hg10 mi
6:56 AM46 °FOvercast.12 mph82%30.62 "Hg10 mi
6:36 AM46 °FMostly cloudy.3 mph82%30.62 "Hg10 mi
6:16 AM46 °FOvercast.No wind82%30.62 "Hg10 mi
5:56 AM46 °FOvercast.7 mph82%30.62 "Hg10 mi
5:36 AM46 °FMostly cloudy.7 mph82%30.62 "Hg10 mi
5:16 AM46 °FMostly cloudy.7 mph82%30.62 "Hg10 mi
4:56 AM46 °FOvercast.10 mph82%30.62 "Hg10 mi
4:36 AM46 °FOvercast.9 mph76%30.62 "Hg10 mi
4:16 AM46 °FOvercast.6 mph76%30.62 "Hg10 mi
3:56 AM46 °FPartly cloudy.3 mph82%30.62 "Hg10 mi
3:36 AM46 °FMostly cloudy.3 mph82%30.62 "Hg10 mi
3:16 AM46 °FMostly cloudy.13 mph82%30.62 "Hg10 mi
2:56 AM46 °FMostly cloudy.18 mph82%30.63 "Hg10 mi
2:36 AM46 °FMostly cloudy.15 mph82%30.63 "Hg10 mi
2:16 AM46 °FOvercast.14 mph82%30.64 "Hg10 mi
1:56 AM46 °FOvercast.16 mph82%30.64 "Hg2 mi
1:36 AM46 °FOvercast.13 mph82%30.64 "Hg10 mi
1:16 AM45 °FOvercast.15 mph87%30.64 "Hg10 mi
12:56 AM45 °FFog.8 mph87%30.65 "Hg0 mi
12:36 AM45 °FOvercast.10 mph87%30.67 "Hg10 mi
12:16 AM45 °FRain. Low clouds.10 mph81%30.67 "Hg0 mi
11:56 PM
Jul 30
45 °FRain. Low clouds.14 mph87%30.67 "Hg0 mi
11:36 PM45 °FLight rain. Overcast.7 mph87%30.67 "Hg1 mi
11:16 PM45 °FMostly cloudy.No wind87%30.67 "Hg1 mi
10:56 PM46 °FMostly cloudy.9 mph82%30.67 "Hg10 mi
10:36 PM46 °FOvercast.12 mph76%30.67 "Hg1 mi
10:16 PM46 °FRain. Overcast.16 mph82%30.67 "Hg3 mi
9:56 PM46 °FLight rain. Overcast.14 mph76%30.67 "Hg10 mi
9:36 PM45 °FOvercast.12 mph76%30.67 "Hg10 mi
9:16 PM45 °FRain. Mostly cloudy.10 mph87%30.67 "Hg1 mi
8:56 PM45 °FLight rain. Mostly cloudy.3 mph87%30.66 "Hg10 mi
8:36 PM46 °FDrizzle. Cloudy.No wind82%30.64 "Hg2 mi
8:16 PM45 °FLight rain. Mostly cloudy.7 mph87%30.64 "Hg0 mi
7:56 PM46 °FCloudy.No wind82%30.64 "Hg5 mi
7:36 PM46 °FThundershowers. Low clouds.3 mph82%30.64 "Hg0 mi
7:16 PM46 °FHeavy rain. Low clouds.17 mph87%30.64 "Hg0 mi
6:56 PM46 °FThundershowers. More clouds than sun.6 mph82%30.64 "Hg10 mi
6:36 PM48 °FLight rain. Mostly cloudy.3 mph76%30.64 "Hg5 mi
5:56 PM46 °FThunderstorms. Fog.7 mph87%30.64 "Hg3 mi
5:36 PM46 °FLight rain. Low clouds.8 mph87%30.64 "Hg1 mi
5:16 PM46 °FThunderstorms. Low clouds.10 mph87%30.64 "Hg0 mi
4:56 PM46 °FHeavy rain. Low clouds.8 mph87%30.64 "Hg0 mi
4:36 PM50 °FLight rain. Low clouds.5 mph82%30.64 "Hg0 mi
4:16 PM52 °FRain. Mostly cloudy.5 mph82%30.63 "Hg2 mi
3:56 PM54 °FCloudy.8 mph77%30.64 "Hg10 mi
3:36 PM52 °FCloudy.14 mph77%30.64 "Hg10 mi
2:54 PM54 °FCloudy.13 mph63%30.64 "Hg10 mi
2:34 PM54 °FCloudy.16 mph63%30.64 "Hg10 mi
1:56 PM54 °FThundershowers. Cloudy.6 mph67%30.64 "Hg10 mi
1:36 PM52 °FRain. Cloudy.20 mph72%30.64 "Hg7 mi
1:16 PM52 °FDrizzle. Cloudy.16 mph72%30.64 "Hg10 mi
12:56 PM52 °FThundershowers. Cloudy.14 mph77%30.64 "Hg7 mi
12:36 PM52 °FRain. Cloudy.12 mph77%30.64 "Hg4 mi
12:16 PM54 °FCloudy.8 mph72%30.64 "Hg10 mi
Weather by CustomWeather, © 2014

See weather overviewHow to use our weather pages